Location: Kaarina
(60.4167°N, 22.4167°E)
Time: 07:40:55
(UTC+03:00)

Meteor 1-21 - Pass Details

Date: 24 August 2019
Orbit: 843 x 889 km, 81.2° (Epoch: 22 September)

Event Time Altitude Azimuth Distance (km) Brightness Sun altitude
Rises 23:21:04 0° 342° (NNW) 3,452 9.0 -14.0°
Reaches altitude 10° 23:23:31 10° 341° (NNW) 2,505 8.0 -14.1°
Maximum altitude 23:29:10 73° 258° (WSW) 893 4.4 -14.5°
Enters shadow 23:33:21 18° 176° (S) 1,941 5.6 -14.8°
